Location: Buchberg
(46.9333°N, 15.8500°E)
Time: 19:38:15
(UTC+00:00)

Cosmos 1763 Rocket - Pass Details

Date: 14 July 2020
Orbit: 732 x 781 km, 74.0° (Epoch: 05 August)

Event Time Altitude Azimuth Distance (km) Brightness Sun altitude
Rises 02:22:56 0° 333° (NNW) 3,242 7.0 -7.9°
Reaches altitude 10° 02:25:21 10° 329° (NNW) 2,318 6.2 -7.6°
Maximum altitude 02:30:27 52° 254° (WSW) 959 3.7 -7.0°
Drops below altitude 10° 02:35:34 10° 179° (S) 2,323 5.6 -6.3°
Sets 02:38:00 0° 175° (S) 3,249 6.4 -6.0°
